GJAKE HKEL-HKJK

Flight info

Callsign GJAKE
Flight time 0h 29m
Altitude 23000
Route KIDUM1Y KIDUM DCT IBKAS IBKAS1A
Aircraft CL60/M-SBDE1E2E3FGHIJ1J4J5J7M3RWXYZ/LB1V1D1

Departure

Time 2026-04-26 15:26
Airport Eldoret International Airport (HKEL)

Arrival

Time 2026-04-26 15:56
Airport Jomo Kenyatta International Airport (HKJK)
Time Latitude Longitude Altitude Speed Heading
2026-04-26 15:01 0.40388 35.22331 6857 ft 0 kts 78°
2026-04-26 15:22 0.40391 35.22346 6857 ft 4 kts 87°
2026-04-26 15:22 0.40359 35.22350 6857 ft 8 kts 256°
2026-04-26 15:22 0.40335 35.22290 6857 ft 7 kts 213°
2026-04-26 15:22 0.40284 35.22258 6860 ft 9 kts 213°
2026-04-26 15:23 0.40228 35.22222 6861 ft 2 kts 213°
2026-04-26 15:23 0.40228 35.22221 6861 ft 0 kts 213°
2026-04-26 15:25 0.40227 35.22221 6861 ft 0 kts 213°
2026-04-26 15:25 0.40211 35.22211 6862 ft 10 kts 213°
2026-04-26 15:25 0.40115 35.22228 6863 ft 12 kts 96°
2026-04-26 15:25 0.40149 35.22420 6865 ft 63 kts 79°
2026-04-26 15:26 0.40301 35.23174 6883 ft 151 kts 78°
2026-04-26 15:26 0.40537 35.24351 7358 ft 183 kts 78°
2026-04-26 15:26 0.40797 35.25652 8194 ft 199 kts 79°
2026-04-26 15:26 0.40694 35.27086 8962 ft 218 kts 111°
2026-04-26 15:27 0.39642 35.28217 9741 ft 236 kts 146°
2026-04-26 15:27 0.38101 35.29027 10526 ft 261 kts 150°
2026-04-26 15:27 0.36414 35.29899 11266 ft 288 kts 150°
2026-04-26 15:27 0.34545 35.30872 12005 ft 304 kts 150°
2026-04-26 15:28 0.32587 35.31895 12748 ft 326 kts 150°
2026-04-26 15:28 0.30507 35.32981 13492 ft 346 kts 150°
2026-04-26 15:28 0.28296 35.34137 14246 ft 360 kts 150°
2026-04-26 15:28 0.26048 35.35316 15013 ft 366 kts 150°
2026-04-26 15:29 0.23753 35.36522 15830 ft 371 kts 149°
2026-04-26 15:29 0.21423 35.37748 16641 ft 380 kts 149°
2026-04-26 15:29 0.16583 35.40298 18279 ft 396 kts 149°
2026-04-26 15:30 0.11595 35.42928 19916 ft 406 kts 149°
2026-04-26 15:30 0.09067 35.44261 20726 ft 410 kts 149°
2026-04-26 15:30 0.06492 35.45620 21254 ft 421 kts 149°
2026-04-26 15:31 0.03827 35.47029 21706 ft 432 kts 149°
2026-04-26 15:31 -0.01661 35.49927 22601 ft 444 kts 150°
2026-04-26 15:31 -0.04423 35.51386 23032 ft 449 kts 150°
2026-04-26 15:32 -0.09166 35.53893 23355 ft 465 kts 150°
2026-04-26 15:32 -0.13040 35.55939 23333 ft 464 kts 150°
2026-04-26 15:32 -0.15954 35.57478 23330 ft 461 kts 150°
2026-04-26 15:33 -0.18803 35.58983 23326 ft 460 kts 150°
2026-04-26 15:33 -0.21685 35.60506 23324 ft 460 kts 150°
2026-04-26 15:33 -0.24542 35.62016 23324 ft 460 kts 150°
2026-04-26 15:33 -0.27412 35.63534 23335 ft 460 kts 150°
2026-04-26 15:34 -0.30250 35.65039 23345 ft 460 kts 149°
2026-04-26 15:34 -0.32893 35.66875 23342 ft 457 kts 137°
2026-04-26 15:34 -0.35305 35.68973 23344 ft 457 kts 136°
2026-04-26 15:34 -0.37736 35.71086 23357 ft 457 kts 136°
2026-04-26 15:35 -0.40160 35.73191 23365 ft 457 kts 136°
2026-04-26 15:35 -0.42617 35.75325 23364 ft 457 kts 137°
2026-04-26 15:35 -0.45039 35.77427 23365 ft 457 kts 137°
2026-04-26 15:35 -0.47478 35.79544 23370 ft 458 kts 136°
2026-04-26 15:36 -0.49925 35.81668 23366 ft 458 kts 137°
2026-04-26 15:36 -0.52336 35.83762 23361 ft 458 kts 136°
2026-04-26 15:36 -0.54766 35.85871 23367 ft 458 kts 136°
2026-04-26 15:36 -0.57194 35.87978 23362 ft 458 kts 136°
2026-04-26 15:37 -0.59637 35.90098 23357 ft 458 kts 137°
2026-04-26 15:37 -0.62078 35.92216 23364 ft 458 kts 137°
2026-04-26 15:37 -0.64495 35.94314 23372 ft 458 kts 137°
2026-04-26 15:37 -0.66925 35.96422 23376 ft 459 kts 137°
2026-04-26 15:38 -0.69374 35.98548 23380 ft 459 kts 136°
2026-04-26 15:38 -0.71805 36.00657 23392 ft 459 kts 136°
2026-04-26 15:38 -0.74238 36.02769 23390 ft 459 kts 137°
2026-04-26 15:38 -0.76679 36.04887 23391 ft 460 kts 137°
2026-04-26 15:39 -0.79140 36.07023 23379 ft 460 kts 137°
2026-04-26 15:39 -0.81576 36.09137 23364 ft 460 kts 137°
2026-04-26 15:39 -0.84008 36.11247 23352 ft 456 kts 137°
2026-04-26 15:39 -0.85611 36.12638 23346 ft 452 kts 137°
2026-04-26 15:40 -0.88805 36.15409 23340 ft 448 kts 136°
2026-04-26 15:40 -0.91186 36.17475 23333 ft 447 kts 137°
2026-04-26 15:40 -0.93552 36.19529 23326 ft 447 kts 136°
2026-04-26 15:40 -0.95935 36.21597 23326 ft 447 kts 136°
2026-04-26 15:41 -0.98364 36.23569 23319 ft 448 kts 140°
2026-04-26 15:41 -1.00884 36.25501 23315 ft 446 kts 140°
2026-04-26 15:41 -1.03359 36.27399 22943 ft 440 kts 140°
2026-04-26 15:41 -1.05767 36.29247 22373 ft 430 kts 140°
2026-04-26 15:42 -1.08154 36.31081 21797 ft 422 kts 140°
2026-04-26 15:42 -1.10492 36.32877 21236 ft 413 kts 140°
2026-04-26 15:42 -1.12761 36.34622 20698 ft 405 kts 140°
2026-04-26 15:42 -1.14992 36.36337 20397 ft 400 kts 140°
2026-04-26 15:43 -1.17237 36.38067 20299 ft 401 kts 140°
2026-04-26 15:43 -1.19464 36.39782 20179 ft 404 kts 140°
2026-04-26 15:43 -1.23986 36.43265 19168 ft 402 kts 140°
2026-04-26 15:44 -1.26237 36.44999 18348 ft 400 kts 140°
2026-04-26 15:44 -1.30757 36.48103 16728 ft 388 kts 157°
2026-04-26 15:44 -1.33401 36.48609 15970 ft 379 kts 178°
2026-04-26 15:45 -1.38495 36.48495 15186 ft 345 kts 180°
2026-04-26 15:45 -1.40904 36.48422 14934 ft 335 kts 180°
2026-04-26 15:46 -1.45494 36.48284 14395 ft 317 kts 180°
2026-04-26 15:46 -1.47692 36.48222 14120 ft 310 kts 178°
2026-04-26 15:46 -1.49803 36.48630 13844 ft 299 kts 155°
2026-04-26 15:46 -1.51011 36.49278 13662 ft 293 kts 142°
2026-04-26 15:47 -1.52829 36.51240 13285 ft 276 kts 117°
2026-04-26 15:47 -1.53666 36.54789 12797 ft 255 kts 85°
2026-04-26 15:47 -1.53352 36.56523 12554 ft 247 kts 72°
2026-04-26 15:48 -1.52835 36.58145 12316 ft 241 kts 71°
2026-04-26 15:48 -1.52318 36.59753 12068 ft 236 kts 72°
2026-04-26 15:48 -1.51818 36.61312 11810 ft 232 kts 72°
2026-04-26 15:48 -1.51319 36.62864 11550 ft 228 kts 72°
2026-04-26 15:49 -1.50837 36.64365 11316 ft 224 kts 72°
2026-04-26 15:49 -1.50356 36.65861 11062 ft 220 kts 72°
2026-04-26 15:49 -1.49885 36.67326 10809 ft 217 kts 72°
2026-04-26 15:49 -1.49285 36.68727 10526 ft 216 kts 59°
2026-04-26 15:50 -1.48483 36.69987 10272 ft 207 kts 58°
2026-04-26 15:50 -1.47681 36.71168 10019 ft 201 kts 56°
2026-04-26 15:50 -1.46861 36.72324 9746 ft 204 kts 56°
2026-04-26 15:50 -1.46030 36.73476 9489 ft 201 kts 55°
2026-04-26 15:51 -1.45194 36.74627 9224 ft 202 kts 55°
2026-04-26 15:51 -1.44360 36.75770 8959 ft 201 kts 56°
2026-04-26 15:51 -1.43521 36.76918 8698 ft 200 kts 56°
2026-04-26 15:51 -1.42693 36.78051 8437 ft 200 kts 56°
2026-04-26 15:52 -1.41871 36.79174 8187 ft 200 kts 56°
2026-04-26 15:52 -1.41041 36.80311 7927 ft 201 kts 56°
2026-04-26 15:52 -1.40208 36.81450 7643 ft 193 kts 57°
2026-04-26 15:52 -1.39698 36.82145 7494 ft 182 kts 57°
2026-04-26 15:53 -1.38700 36.83509 7198 ft 178 kts 57°
2026-04-26 15:53 -1.38004 36.84458 6999 ft 154 kts 58°
2026-04-26 15:53 -1.37392 36.85293 6806 ft 144 kts 58°
2026-04-26 15:53 -1.36802 36.86102 6608 ft 139 kts 59°
2026-04-26 15:54 -1.36227 36.86890 6441 ft 138 kts 59°
2026-04-26 15:54 -1.35658 36.87670 6269 ft 137 kts 59°
2026-04-26 15:54 -1.35089 36.88448 6096 ft 136 kts 58°
2026-04-26 15:54 -1.34528 36.89216 5922 ft 136 kts 58°
2026-04-26 15:55 -1.33967 36.89984 5753 ft 136 kts 58°
2026-04-26 15:55 -1.33393 36.90758 5565 ft 136 kts 57°
2026-04-26 15:55 -1.32840 36.91523 5409 ft 135 kts 58°
2026-04-26 15:55 -1.32296 36.92270 5315 ft 120 kts 54°
2026-04-26 15:56 -1.31942 36.92754 5318 ft 36 kts 53°
2026-04-26 15:56 -1.31812 36.92931 5318 ft 23 kts 53°
2026-04-26 15:56 -1.31767 36.92976 5317 ft 9 kts 16°
2026-04-26 15:56 -1.31702 36.92938 5315 ft 14 kts 323°
2026-04-26 15:57 -1.31640 36.92866 5310 ft 13 kts 260°
2026-04-26 15:57 -1.31669 36.92793 5311 ft 10 kts 344°
2026-04-26 15:57 -1.31597 36.92813 5308 ft 8 kts 52°
2026-04-26 15:57 -1.31591 36.92821 5308 ft 0 kts 55°